Weather History for McCall, ID

Change the Weather History Date:

Friday, September 26, 2014

  Actual Average Record
Temperature  
Mean Temperature 55 °F 46 °F  
Max Temperature 64 °F 64 °F 83 °F (1963)
Min Temperature 45 °F 30 °F 18 °F (1934)
Degree Days  
Heating Degree Days 10 18  
Month to date heating degree days 195 358  
Since 1 July heating degree days 311 686  
Cooling Degree Days 0 0  
Month to date cooling degree days 0 0  
Year to date cooling degree days 185 25  
Growing Degree Days 4 (Base 50)    
Moisture  
Dew Point 40 °F    
Average Humidity 61    
Maximum Humidity 93    
Minimum Humidity 29    
Precipitation  
Precipitation T in 0.03 in 0.56 in (1959)
Month to date precipitation 0.04 0.74  
Year to date precipitation 16.66 13.78  
Sea Level Pressure  
Sea Level Pressure 29.96 in    
Wind  
Wind Speed 5 mph (NNW)    
Max Wind Speed 16 mph    
Max Gust Speed 21 mph    
Visibility 10 miles    
Events      
T = Trace of Precipitation, MM = Missing Value Source: NWS Daily Summary

Daily Weather History Graph

Daily Weather History Graph

Search for Another Location

Airport:

Trip Planner

Search our weather history database for the weather conditions in past years. The results will help you decide how hot, cold, wet, or windy it might be!

Date:

Astronomy

Sep. 26, 2014 Rise Set
Actual Time 7:36 AM MDT 7:34 PM MDT
Civil Twilight 7:07 AM MDT 8:03 PM MDT
Nautical Twilight 6:33 AM MDT 8:37 PM MDT
Astronomical Twilight 5:58 AM MDT 9:12 PM MDT
Moon 10:03 AM MDT (9/26) 8:49 PM MDT (9/26)
Length of Visible Light 12h 56m
Length of Day
11h 57m
Waxing Crescent, 6% of the Moon is Illuminated
Sep 26
Waxing Crescent
Oct 1
First Quarter
Oct 8
Full
Oct 15
Last Quarter
Oct 23
New

Hourly Weather History & Observations

Time (MDT) Temp. Windchill Dew Point Humidity Pressure Visibility Wind Dir Wind Speed Gust Speed Precip Events Conditions
12:51 AM 48.9 °F - 46.0 °F 90% 29.92 in 10.0 mi Calm Calm - 0.01 in   Overcast
1:51 AM 50.0 °F - 46.0 °F 86% 29.91 in 10.0 mi ENE 4.6 mph - 0.00 in   Overcast
2:51 AM 48.9 °F - 46.0 °F 90% 29.91 in 10.0 mi Calm Calm - N/A   Overcast
3:51 AM 48.9 °F - 45.0 °F 86% 29.91 in 10.0 mi East 6.9 mph - N/A   Overcast
4:51 AM 48.0 °F - 45.0 °F 89% 29.91 in 10.0 mi Calm Calm - N/A   Overcast
5:51 AM 46.9 °F - 44.1 °F 90% 29.94 in 10.0 mi NW 4.6 mph - N/A   Overcast
6:51 AM 46.9 °F - 44.1 °F 90% 29.95 in 10.0 mi NW 3.5 mph - N/A   Overcast
7:51 AM 45.0 °F - 43.0 °F 93% 29.98 in 10.0 mi Calm Calm - N/A   Partly Cloudy
8:51 AM 46.0 °F 44.8 °F 44.1 °F 93% 30.00 in 10.0 mi NNE 3.5 mph - N/A   Clear
9:51 AM 54.0 °F - 43.0 °F 66% 29.99 in 10.0 mi Calm Calm - N/A   Clear
10:51 AM 55.9 °F - 39.0 °F 53% 30.00 in 10.0 mi East 5.8 mph - N/A   Clear
11:51 AM 57.9 °F - 36.0 °F 44% 30.00 in 10.0 mi Variable 4.6 mph - N/A   Clear
12:51 PM 60.1 °F - 33.1 °F 36% 29.99 in 10.0 mi Variable 3.5 mph - N/A   Partly Cloudy
1:51 PM 62.1 °F - 34.0 °F 35% 29.98 in 10.0 mi Variable 4.6 mph - N/A   Clear
2:51 PM 62.1 °F - 36.0 °F 38% 29.97 in 10.0 mi Variable 5.8 mph - N/A   Clear
3:51 PM 63.0 °F - 35.1 °F 35% 29.97 in 10.0 mi WNW 6.9 mph - N/A   Partly Cloudy
4:51 PM 62.1 °F - 32.0 °F 32% 29.97 in 10.0 mi West 6.9 mph - N/A   Clear
5:51 PM 60.1 °F - 28.0 °F 30% 29.97 in 10.0 mi WNW 5.8 mph - N/A   Clear
6:51 PM 59.0 °F - 28.0 °F 31% 29.97 in 10.0 mi NW 4.6 mph - N/A   Overcast
7:51 PM 55.0 °F - 39.0 °F 55% 29.97 in 10.0 mi NNW 4.6 mph - N/A   Clear
8:51 PM 52.0 °F - 41.0 °F 66% 29.98 in 10.0 mi WNW 4.6 mph - N/A   Clear
9:51 PM 53.1 °F - 41.0 °F 64% 29.94 in 10.0 mi NNW 10.4 mph - N/A   Clear
10:51 PM 51.1 °F - 41.0 °F 68% 29.94 in 10.0 mi Variable 4.6 mph - N/A   Clear
11:51 PM 54.0 °F - 39.9 °F 59% 29.91 in 10.0 mi NNW 10.4 mph 18.4 mph N/A   Clear